Regional Weather Roundup
Issued by NWS

Home | Current Version | Previous Version | Text Only | Print | Product List | Glossary On
Versions: 1 2 3 4 5 6 7 8 9 10 11 12 13 14 15 16 17 18 19 20 21 22 23 24 25 26 27 28 29 30 31 32 33 34 35 36 37 38 39 40 41 42 43 44 45 46 47 48 49 50
000
ASUS43 KDTX 220710
RWRMI
MICHIGAN HOURLY REGIONAL WEATHER ROUNDUP
NATIONAL WEATHER SERVICE DETROIT/PONTIAC MI
300 AM EDT WED OCT 22 2014

NOTE: "FAIR" INDICATES FEW OR NO CLOUDS BELOW 12,000 FEET WITH NO
SIGNIFICANT WEATHER AND/OR OBSTRUCTION TO VISIBILITY.

MIZ047>049-052>055-059>063-066>070-074>076-081>083-220800-
SOUTHEAST LOWER MICHIGAN

CITY           SKY/WX    TMP DP  RH WIND       PRES   REMARKS
ADRIAN         CLOUDY    43  36  76 N10       30.23S
ALMA           CLOUDY    37  33  86 NW6       30.29R
ANN ARBOR      CLOUDY    44  35  70 N8        30.21F
BAD AXE        CLOUDY    43  40  88 N7        30.26S
DETROIT CITY   CLOUDY    47  38  71 N9        30.21S
DETROIT        CLOUDY    45  38  76 N8        30.22R
FLINT          CLOUDY    44  36  73 N7        30.26R
GROSSE ILE     CLOUDY    46  39  76 N12       30.19S
HILLSDALE      CLOUDY    40  38  93 N3        30.23R
HOWELL         CLOUDY    41  36  82 N6        30.24R

CITY           SKY/WX    TMP DP  RH WIND       PRES   REMARKS
JACKSON        MOCLDY    37  34  89 N5        30.25R
LAMBERTVILLE   CLOUDY    45  37  76 N6        30.21R
LANSING        CLOUDY    38  33  82 N5        30.27S
LAPEER         NOT AVBL
MASON          CLOUDY    36  34  92 NW3       30.26R
MONROE         CLOUDY    45  39  81 N9        30.19S
MT. CLEMENS    CLOUDY    46  40  80 N12       30.19R
PONTIAC        CLOUDY    43  36  76 N8        30.22R
PORT HOPE        N/A     46  39  76 NE17      30.25R
PORT HURON     CLOUDY    45  41  87 N9        30.22R
TRI CITIES     CLOUDY    42  34  73 N8        30.28S
YPSILANTI      CLOUDY    48  37  65 N9        30.22S
$$
MIZ043>046-050>051-056>058-064>065-071>073-077>080-220800-
SOUTHWEST LOWER MICHIGAN

CITY           SKY/WX    TMP DP  RH WIND       PRES   REMARKS
BATTLE CREEK   CLEAR     36  32  85 CALM      30.27R
BENTON HARBOR  CLEAR     32  31  96 E5        30.27R
BIG RAPIDS     CLEAR     30  30 100 CALM      30.30R
COLDWATER      CLEAR     37  35  93 N3        30.25S
HOLLAND        CLEAR     37  33  85 NE5       30.29R
GRAND RAPIDS   CLEAR     35  32  88 N5        30.29R
KALAMAZOO      CLEAR     33  32  96 N5        30.27S
MARSHALL       CLEAR     31  31  99 CALM      30.26R FOG
MUSKEGON       CLEAR     36  30  79 E6        30.30R
$$
MIZ016>042-220800-
NORTHERN LOWER MICHIGAN

CITY           SKY/WX    TMP DP  RH WIND       PRES   REMARKS
ALPENA         CLOUDY    40  33  76 VRB5      30.32R
BEAVER ISLAND  PTCLDY    37  33  86 CALM      30.33S
BELLAIRE       CLEAR     28  27  95 CALM      30.35R
CADILLAC       CLEAR     26  25  97 CALM      30.28S
CHARLEVOIX     CLEAR     38  33  82 E8        30.35S
FRANKFORT      SUNNY     30  27  88 CALM      30.32S
GAYLORD        MOCLDY    30  26  85 E3        30.30S
GRAYLING       PTCLDY    27  26  99 CALM      30.31S
HARBOR SPRINGS CLEAR     31  29  94 CALM      30.34R
HOUGHTON LAKE  CLOUDY    29  27  92 CALM      30.31R
MANISTEE       CLEAR     28  27  93 E6        30.32R
OSCODA         CLOUDY    43  37  78 N9        30.28S
PELLSTON       PTCLDY    25  23  92 CALM      30.34R
TRAVERSE CITY  CLEAR     30  27  88 CALM      30.32R
$$
MIZ007>008-015-220800-
EASTERN UPPER MICHIGAN

CITY           SKY/WX    TMP DP  RH WIND       PRES   REMARKS
KINROSS        PTCLDY    32  30  93 E5        30.35R
MACKINAC ISLAN PTCLDY    38  32  76 E7        30.33S
NEWBERRY       CLEAR     29  28  94 NE5       30.34S
S. S. MARIE    CLEAR     31  27  85 CALM      30.35S
$$
MIZ004>006-011>014-085-220800-
CENTRAL UPPER MICHIGAN

CITY           SKY/WX    TMP DP  RH WIND       PRES   REMARKS
MANISTIQUE     CLEAR     26  26  97 CALM      30.32S
ESCANABA       PTCLDY    28  27  93 N3        30.33R
MENOMINEE      CLEAR     30  28  93 NW3       30.32R
SAWYER-GWINN   PTCLDY    26  25  94 CALM      30.31S
$$
MIZ001>003-009>011-084-220800-
WESTERN UPPER MICHIGAN

CITY           SKY/WX    TMP DP  RH WIND       PRES   REMARKS
IRON MOUNTAIN  PTCLDY    25  22  88 CALM      30.31S FOG
HOUGHTON       CLEAR     32  30  92 E5        30.29S
COPPER HARBOR    N/A     39  34  82 S5        30.31R
IRONWOOD       CLEAR     39  34  81 S5        30.23S
$$

ABBREVIATIONS USED IN REMARKS
   TC - TEMPERATURE IN CELSIUS
  WCI - WIND CHILL INDEX
   HX - HEAT INDEX
  VSB - VISIBILITY




USA.gov is the U.S. government's official web portal to all federal, state and local government web resources and services.